Simultaneous Nadir Overpasses (SNOs) Predictions

Prediction of SNOs between METOP-A and TERRA Satellite Orbit:

Table of predicted SNOs for the next 14.0 days since TLE Epoch: 3/11/2012
Index Date (METOP-A) Time (METOP-A) METOP-A Lat,Lon Date (TERRA) Time (TERRA) TERRA Lat,Lon Distance(km) Time Diff (sec)
1 03/14/2012 05:25:33 -81.29, -34.74 03/14/2012 05:26:31 -81.29, -34.59 2.62 58
2 03/14/2012 06:16:12 81.30, 133.14 03/14/2012 06:15:57 81.30, 133.19 0.89 15
3 03/17/2012 00:59:55 -81.29, 31.57 03/17/2012 01:00:45 -81.28, 31.71 2.49 50
4 03/17/2012 01:50:34 81.30,-160.55 03/17/2012 01:50:11 81.29,-160.53 0.63 23
5 03/19/2012 20:34:16 -81.29, 98.13 03/19/2012 20:34:58 -81.29, 98.21 1.33 42
6 03/19/2012 21:24:55 81.30, -93.99 03/19/2012 21:24:24 81.29, -94.06 1.32 31
7 03/22/2012 16:08:35
